Dewpoint
62 62 63 63 63 63 63 63 63 63 62 63 62 61 59 58 57 56 55 54 53 52 50 51 49 49 48 47 49 48 49 48 44 41 43 44 44 45 45 43 44 44 43
59 61 62 63 63 62 62 62 63 62 62 61 61 59 58 57 56 55 54 53 52 50 50 48 47 47 46 46 46 47 47 46 44 41 42 42 43 43 43 43 43 41 41
58 58 60 61 62 62 62 62 63 63 61 61 60 58 57 56 55 55 53 52 50 49 48 45 42 43 43 45 45 43 43 42 43 42 41 41 41 42 41 40 39 38 39
56 57 57 58 60 61 62 62 62 61 60 59 59 58 56 56 55 53 51 50 48 46 44 42 42 43 44 43 42 42 42 42 42 41 40 40 40 40 40 38 37 38 37
55 56 56 57 58 59 59 59 59 59 58 57 57 56 55 54 53 51 50 47 44 42 42 43 44 44 43 43 42 42 42 42 41 40 38 38 38 38 38 37 36 36 36
51 55 57 58 58 58 58 58 57 57 57 56 55 55 53 52 51 48 47 44 42 42 43 43 43 43 43 42 42 43 43 42 41 40 39 38 38 38 37 36 36 35 33
51 53 56 58 58 58 58 57 57 56 55 55 54 53 51 50 46 44 43 43 43 42 41 41 42 42 41 41 41 41 40 41 42 41 39 39 38 38 37 36 35 35 34
44 45 47 50 54 56 55 55 55 53 53 52 52 50 48 44 42 42 42 42 41 41 41 41 40 40 40 39 40 39 40 41 40 40 40 40 39 38 37 37 37 35 34
42 44 45 47 48 50 50 51 51 50 49 48 47 46 45 41 41 41 42 40 40 40 40 40 40 39 39 39 38 37 37 38 39 39 39 39 38 38 38 36 34 33 32
41 43 44 44 45 46 47 47 47 47 46 45 44 44 43 41 42 42 41 41 39 39 39 38 39 38 38 39 38 37 36 37 37 36 36 37 37 37 37 37 35 33 31
41 42 41 41 41 42 44 44 43 44 43 43 42 43 43 42 41 42 41 40 39 38 37 36 36 36 36 36 37 36 36 37 37 36 35 35 35 35 35 36 36 35 32
40 40 40 40 40 41 41 42 43 43 42 41 41 40 41 41 41 41 41 41 39 37 36 35 35 36 35 35 35 36 36 36 35 34 33 32 32 32 33 34 35 35 36
39 38 38 39 39 40 40 40 40 40 39 36 36 36 37 38 39 40 40 40 38 36 35 34 34 34 34 34 34 34 35 34 33 33 32 32 32 33 33 33 33 33 33
39 38 38 38 37 37 37 37 37 37 36 35 34 33 34 34 35 36 36 36 36 34 34 33 33 33 33 34 34 34 34 33 33 33 32 32 32 32 32 32 31 32 30
37 37 38 38 37 36 35 35 35 35 37 36 37 37 35 33 36 37 35 34 34 33 32 32 32 32 32 32 32 32 32 32 32 32 32 31 31 31 31 32 31 31 29
34 34 34 34 34 33 33 34 35 36 36 36 37 36 37 37 37 36 35 35 33 32 31 30 30 31 31 31 31 31 31 31 32 32 31 31 30 30 30 31 31 30 29
32 33 33 33 32 32 32 31 31 33 35 36 36 36 36 36 35 36 35 33 33 31 30 30 30 31 31 31 31 31 30 31 32 31 31 31 31 31 30 30 30 29 29
32 32 31 31 30 30 31 29 29 29 29 31 33 34 35 35 35 35 34 32 30 30 30 30 30 31 31 31 31 31 30 31 31 31 31 31 31 30 30 30 30 29 28
31 30 30 30 30 30 30 29 30 32 31 31 33 34 35 34 34 34 32 30 30 29 30 30 30 31 31 32 32 31 31 31 31 31 31 31 31 31 30 30 30 30 29
29 29 29 29 29 29 29 30 31 31 31 31 31 31 32 32 31 31 30 30 30 30 30 30 31 31 31 31 32 32 31 31 31 31 31 31 31 31 30 30 30 29 28
28 27 25 25 24 25 28 28 27 27 27 28 30 32 32 31 31 31 31 30 30 30 31 31 31 31 32 31 32 31 31 31 31 31 31 31 31 31 31 31 30 30 29
26 28 29 29 28 26 25 26 26 26 26 26 26 28 32 32 31 31 31 31 31 31 32 32 31 31 32 32 31 31 31 31 31 31 31 31 31 31 31 31 30 30 29
19 21 22 25 28 28 26 25 24 24 25 25 25 26 30 31 31 32 31 31 32 32 32 32 32 31 33 32 32 32 31 31 32 32 31 31 31 31 31 31 31 29 29
20 20 20 21 22 24 24 24 23 23 22 23 24 25 26 30 31 32 31 32 32 32 32 32 31 30 32 32 32 32 32 32 33 32 32 31 31 31 31 31 31 31 30
19 19 20 19 19 20 21 22 23 20 20 21 22 23 24 27 31 31 30 30 29 30 28 28 27 28 30 31 32 32 32 32 32 32 32 32 31 31 31 31 31 31 30
17 17 18 18 19 19 19 20 20 20 20 20 21 23 25 27 29 26 24 23 22 21 20 19 19 20 22 25 25 30 32 32 32 31 32 31 31 30 31 31 31 31 31
Wind_Speed
22 22 21 22 22 20 21 20 20 20 19 18 17 17 17 18 17 19 20 20 20 19 17 19 21 19 17 13 10 10 13 11 16 5 6 4 5 7 5 3 6 5 7
22 18 22 17 18 20 21 20 18 20 18 18 16 16 17 19 20 21 22 21 22 20 21 22 21 15 13 12 13 13 9 11 10 15 4 4 6 3 5 5 3 4 8
18 19 16 18 18 21 21 20 19 18 18 16 16 19 19 19 20 19 20 20 20 22 24 24 20 17 14 11 12 11 12 11 9 7 7 3 5 3 3 2 6 9 8
18 18 20 21 23 24 20 19 19 20 18 18 19 18 18 18 18 19 18 17 19 22 22 20 16 17 16 16 15 15 13 10 7 7 7 8 7 3 3 5 8 5 15
16 17 24 19 17 17 20 22 19 17 18 16 16 16 17 19 20 22 24 25 23 21 16 15 15 16 16 15 14 15 12 8 7 10 9 6 5 4 5 0 4 8 12
11 13 10 12 14 19 19 15 14 14 13 14 17 19 20 19 23 28 24 24 22 23 21 15 10 12 12 12 13 10 10 10 11 9 9 10 10 4 3 3 5 4 6
16 14 13 11 13 15 13 12 16 17 15 19 18 18 21 19 24 28 25 20 20 18 17 14 13 12 13 11 9 9 9 10 12 10 11 10 9 7 4 3 4 1 5
22 20 18 15 13 11 10 12 12 10 15 16 17 18 16 15 25 26 22 18 15 15 14 12 13 13 12 11 10 7 6 7 8 11 9 8 8 5 6 4 4 2 1
23 23 22 21 20 16 13 12 9 9 10 10 8 12 13 10 17 20 16 9 3 7 8 9 9 7 8 9 8 7 5 5 3 4 5 6 7 6 5 6 5 4 3
21 19 17 17 17 18 17 15 9 7 7 7 8 10 14 18 19 16 18 14 12 5 1 1 5 5 6 5 6 7 6 5 1 3 3 4 4 4 8 10 7 6 4
19 19 19 18 17 15 13 10 9 3 5 8 11 14 20 19 18 19 12 6 8 9 9 8 5 3 3 2 3 4 6 3 5 8 8 6 5 6 5 7 7 8 7
17 17 19 19 17 16 14 10 4 2 6 8 14 14 14 16 16 7 5 5 6 10 12 8 6 6 5 2 3 5 5 6 6 8 10 8 7 6 5 5 4 5 7
18 18 18 17 16 16 15 13 8 5 6 10 13 14 13 10 4 5 7 12 8 5 4 6 5 2 2 4 5 7 7 8 11 10 10 9 8 7 7 5 5 6 7
16 16 16 16 17 18 17 16 14 13 14 15 15 13 10 9 7 10 12 8 10 8 7 4 2 2 3 5 4 7 8 11 13 12 10 9 10 9 8 6 6 6 5
14 15 14 13 14 14 15 16 15 14 13 12 8 4 7 6 7 8 11 13 11 8 6 4 3 2 3 4 4 4 7 9 10 9 11 11 12 11 8 8 7 6 5
14 12 13 12 11 11 12 12 11 10 9 8 6 4 5 7 9 8 12 12 11 10 4 3 2 3 5 4 3 6 6 8 10 11 11 12 12 12 11 9 9 6 10
10 11 10 11 10 10 9 10 11 9 9 7 7 8 8 10 12 10 10 11 10 8 4 3 3 3 4 3 5 6 7 8 10 11 12 12 12 12 12 10 10 10 10
12 12 10 10 10 10 10 10 10 11 12 12 11 12 12 11 10 5 9 7 5 6 4 4 3 4 3 3 3 5 6 7 10 11 12 13 13 13 13 12 12 11 12
12 11 11 10 10 10 10 10 9 9 10 11 12 10 11 11 4 3 8 6 7 6 6 5 4 4 4 3 3 5 6 7 9 11 11 12 13 14 14 12 12 13 14
11 12 11 9 9 9 9 10 10 10 10 12 11 11 11 7 6 6 7 8 6 6 4 3 4 4 4 4 4 5 4 6 8 9 10 11 12 13 14 14 15 15 13
13 13 11 12 11 11 9 8 10 11 11 11 11 11 13 10 11 8 8 9 9 7 6 6 5 3 2 4 6 6 6 6 7 8 9 11 12 13 13 14 14 14 14
13 13 13 12 11 11 10 7 8 9 9 10 12 12 14 11 11 10 8 8 7 6 4 3 2 3 2 3 5 6 5 5 7 8 9 10 11 11 13 14 15 15 15
13 13 13 12 10 10 10 10 10 11 11 10 10 11 12 11 10 9 7 3 3 3 2 3 2 3 3 3 5 5 5 5 7 8 9 10 11 11 12 13 15 15 16
12 13 12 13 12 12 12 10 9 9 11 11 10 11 12 12 11 5 2 4 4 2 1 1 1 4 5 3 4 3 4 4 6 8 10 11 11 11 12 12 14 15 17
13 12 12 12 12 12 13 13 8 9 13 13 12 12 12 13 10 2 3 4 6 7 10 9 9 9 7 3 1 1 3 4 5 7 8 10 11 12 11 12 14 14 16
14 14 14 14 14 12 12 11 10 11 11 12 12 12 12 11 3 8 9 11 11 11 10 11 11 12 11 9 8 5 3 4 6 7 8 9 10 10 11 12 14 13 15
Wind_Direction
225 220 217 219 221 222 225 229 228 236 233 222 214 212 204 194 184 181 180 175 178 183 176 183 186 182 195 202 209 225 229 230 255 265 223 229 235 254 262 270 279 300 323
237 223 224 220 214 228 224 226 224 231 232 222 207 207 199 193 187 186 182 184 182 180 177 186 190 187 199 205 215 216 220 227 243 271 252 265 250 237 251 278 288 332 331
232 232 234 229 222 228 229 225 225 223 222 215 208 205 199 195 191 191 185 183 183 181 182 186 188 190 205 202 199 206 225 232 231 246 273 259 266 240 267 305 311 342 332
232 230 234 235 230 226 225 225 222 216 215 212 209 206 196 191 196 187 181 180 181 186 187 188 185 192 194 196 201 209 216 215 222 238 249 250 237 209 218 261 306 7 326
246 240 243 251 248 237 236 232 225 211 214 209 206 204 195 190 189 182 187 190 183 182 182 187 189 195 200 196 193 207 195 196 218 228 239 223 233 244 257 50 298 339 315
307 270 271 266 246 238 239 235 224 226 214 208 211 208 199 198 196 190 183 181 182 181 181 178 181 197 191 201 214 208 186 198 222 223 244 247 250 244 212 262 303 3 328
21 1 341 318 286 263 247 232 231 227 212 213 209 206 209 202 193 183 172 169 174 173 170 176 181 196 196 195 197 195 216 225 225 223 230 237 243 215 188 261 256 183 256
17 10 5 354 329 305 283 269 260 235 227 218 211 206 199 193 179 172 160 161 160 163 164 180 190 194 196 200 190 184 199 220 214 206 210 228 221 181 191 215 219 138 172
9 2 356 353 342 333 319 301 273 249 236 226 208 194 185 161 153 125 109 90 55 147 154 167 191 200 222 216 194 194 200 230 214 209 213 222 209 202 197 172 203 160 242
357 351 352 354 351 344 338 330 319 303 260 189 162 156 140 130 136 140 138 137 147 173 249 175 229 230 238 221 209 208 223 249 211 217 178 196 196 213 202 204 189 188 182
346 346 352 355 351 347 339 333 319 279 160 147 143 139 139 139 146 145 140 157 163 184 197 200 181 207 229 225 213 228 235 199 218 207 196 192 172 174 192 208 205 179 192
352 356 351 352 355 352 350 346 356 146 159 160 149 130 123 129 126 139 170 184 200 202 214 201 191 196 216 246 258 251 254 245 222 195 177 182 181 169 192 212 204 201 193
12 13 8 4 15 17 13 5 7 43 87 70 74 73 82 85 96 155 229 242 207 188 197 198 183 213 284 290 266 273 250 210 193 192 187 187 179 169 156 138 108 119 96
32 33 31 29 31 37 41 38 42 55 55 59 53 38 21 347 310 280 255 197 185 181 189 195 218 210 248 251 257 259 240 206 191 195 185 167 150 153 156 137 136 155 121
31 25 25 33 37 35 46 44 41 32 38 33 9 328 304 292 287 271 214 192 193 195 173 174 202 185 237 218 234 246 226 191 178 173 165 162 159 158 153 147 146 159 145
40 37 38 34 29 30 24 10 18 10 358 10 355 326 311 278 286 266 218 196 188 177 179 179 208 229 244 236 229 229 212 193 177 172 169 164 167 158 152 150 159 158 146
27 30 30 27 25 25 23 18 2 352 342 346 348 337 319 300 308 295 219 178 177 172 203 194 215 236 259 246 219 210 216 201 179 176 169 169 164 152 155 160 155 146 142
21 19 16 9 6 6 5 359 355 354 347 340 338 332 322 319 317 292 174 160 191 211 201 201 239 246 237 216 222 223 213 186 184 179 173 171 164 162 161 162 158 148 146
16 12 6 3 3 1 358 355 352 346 348 340 339 343 340 339 313 213 194 218 227 222 218 207 238 246 236 204 215 220 205 192 187 181 174 169 167 167 179 168 162 155 150
3 5 3 354 355 358 359 352 352 350 355 351 343 341 341 345 317 275 233 225 232 238 235 213 246 227 218 198 202 200 200 189 185 178 171 171 172 173 178 172 168 166 166
351 348 348 350 349 343 352 356 355 354 351 346 339 342 338 334 311 284 254 231 233 238 242 237 244 238 235 198 189 191 198 194 183 180 175 175 175 178 171 169 163 163 159
355 348 344 338 336 333 343 337 334 335 338 334 332 326 331 329 326 311 278 245 236 229 226 222 261 242 271 229 207 189 194 198 187 183 180 179 180 175 169 168 164 165 162
338 334 332 327 329 332 331 329 336 333 333 336 319 323 321 326 317 317 291 262 208 198 202 211 240 291 309 251 213 198 197 205 199 185 182 180 180 177 173 172 169 169 169
331 329 324 319 317 318 318 316 318 316 327 335 329 321 318 324 312 296 104 83 62 55 333 278 280 293 289 262 203 195 208 206 195 194 181 180 182 182 177 174 174 176 175
347 338 339 334 330 327 321 315 323 326 329 326 324 315 314 307 304 144 100 75 48 52 48 48 36 32 30 21 20 207 211 202 195 186 182 179 182 184 182 179 178 177 177
3 5 3 360 358 353 349 350 348 342 345 347 341 335 327 304 335 82 67 69 65 56 48 38 31 28 24 19 1 339 232 193 186 183 182 185 184 183 182 182 180 179 179